Regional Weather Roundup
Issued by NWS Charleston, SC

Current Version | Previous Version | Graphics & Text | Print | Product List | Glossary On
Versions: 1 2 3 4 5 6 7 8 9 10 11 12 13 14 15 16 17 18 19 20 21 22 23 24 25 26 27 28 29 30 31 32 33 34 35 36 37 38 39 40 41 42 43 44 45 46 47 48 49 50
000
ASUS42 KCHS 291928
RWRCHS

REGIONAL WEATHER ROUNDUP
NATIONAL WEATHER SERVICE CHARLESTON SC
300 PM EDT FRI APR 29 2016

NOTE: "FAIR" INDICATES FEW OR NO CLOUDS BELOW 12,000 FEET WITH NO
SIGNIFICANT WEATHER AND/OR OBSTRUCTIONS TO VISIBILITY.

NOT ALL STATIONS ARE QUALITY CONTROLLED. USE DATA WITH CAUTION...
ESPECIALLY DEWPOINT OBSERVATIONS.

SCZ027-030-031-034>040-042>050-292000-
...SOUTHEAST SOUTH CAROLINA...

CITY           SKY/WX    TMP DP  RH WIND       PRES   REMARKS
N CHARLESTON   MOSUNNY   87  59  38 SE5       29.94S
WATERFRONT PRK   N/A     78  68  71 SE9       29.93S
MOUNT PLEASANT FAIR      84  63  48 E7G17     29.95S
JOHNS ISLAND   FAIR      84  63  48 E13G18    29.95S
PINOPOLIS        N/A     84  72  65 VRB3      29.86S
MONCKS CORNER  FAIR      84  48  28 N5        29.94S
SUMMERVILLE    FAIR      88  59  37 CALM      29.94F
BEAUFORT MCAS  MOSUNNY   91  62  37 SE3       29.94S HX  91
BEAUFORT ARPT  MOCLDY    88  59  37 S7        29.93F
HILTON HEAD IS MOSUNNY   84  63  48 S7        29.97R
WALTERBORO     CLEAR     91  52  25 CALM      29.94F
ALLENDALE      FAIR      90  54  29 CALM      29.93S

...SOUTHERN MIDLANDS AND PEE DEE...

CITY           SKY/WX    TMP DP  RH WIND       PRES   REMARKS
GEORGETOWN     FAIR      82  63  51 E12       29.96S
KINGSTREE      FAIR      86  55  35 CALM      29.95F
ORANGEBURG     SUNNY     88  54  31 CALM      29.94F
BARNWELL       FAIR      91  57  31 SE6       29.95R HX  90
AIKEN          FAIR      88  50  27 NW3       29.99S
MANNING        NOT AVBL
COLUMBIA       MOSUNNY   89  51  27 N5        29.94S
SUMTER         SUNNY     85  58  39 SE2       29.93F
FLORENCE       SUNNY     85  61  44 VRB3      29.95F
MYRTLE BEACH   MOSUNNY   81  63  54 E18       29.98R
N MYRTLE BEACH SUNNY     75  66  73 SE13      29.97S

$$

GAZ063-065-086>088-099>101-113>116-118-119-134>141-150-292000-
...SOUTHEAST GEORGIA...

CITY           SKY/WX    TMP DP  RH WIND       PRES   REMARKS
SAVANNAH ARPT  MOSUNNY   89  56  32 CALM      29.94S
HUNTER AAF     SUNNY     90  64  41 E10       29.92R HX  92
FORT STEWART   SUNNY     90  57  33 SW5       29.91F
STATESBORO     SUNNY     93  62  35 N3        29.94S HX  94
SYLVANIA       CLEAR     91  59  35 CALM      29.94F HX  90
CLAXTON        FAIR      92  60  33 W7        29.94F HX  91

...CSRA...CENTRAL AND FAR SOUTHEAST GEORGIA...

CITY           SKY/WX    TMP DP  RH WIND       PRES   REMARKS
THOMSON        SUNNY     89  60  37 SW3       30.00F
AUGUSTA-BUSH   SUNNY     89  55  31 E3        29.94S
AUGUSTA-DANIEL SUNNY     91  52  26 VRB6      29.96S
SWAINSBORO     FAIR      88  54  31 NW5       29.96S
VIDALIA        SUNNY     90  59  35 NW3       29.95S
EASTMAN        FAIR      90  56  32 CALM      29.97F
HAZLEHURST     FAIR      91  58  33 N7        29.94S
ALMA           SUNNY     89  60  37 CALM      29.94F
WAYCROSS       MOSUNNY   88  64  44 N6        29.94F
JESUP          FAIR      95  63  34 E6        29.93F HX  96
BAXLEY         FAIR      90  61  37 W7        29.94S
BRUNSWICK      MOSUNNY   91  68  46 SE9       29.95S HX  95
SAINT SIMONS   MOSUNNY   84  70  62 SE8       29.95F

$$

SCZ027-028-034-036>038-045-046-048>050-GAZ119-141-292000-
...LAKE AND SUPPLEMENTAL COASTAL OBSERVATIONS...

STATION/POSITION TIME  TEMP    WIND        PRES    WAVE   SWELL
                       AIR SEA DIR/SP/G            HT/PER HT/PER/DIR
                 (UTC) (F)     (DEG/KT/KT) (MB)    (FT/S) (FT/S/D)
WINYAH BAY       1845   77     100/  8     1014.0S
LAKE MURRAY      1800   80     200/  6/  7 1013.9F
ACE BASIN NERRS  1800   90      40/  2     1014.0S
FORT PULASKI     1900   83 72  100/ 10/ 12 1014.5R
SAPELO ISLAND    1900   89     140/  7     1014.0S

$$

ANZ835-935-AMZ111-154-330-350-352-354-370-450-454-472-292000-
...C-MAN AND BUOY OBSERVATIONS...

STATION/POSITION TIME  TEMP    WIND        PRES    WAVE   SWELL
                       AIR SEA DIR/SP/G            HT/PER HT/PER/DIR
                 (UTC) (F)     (DEG/KT/KT) (MB)    (FT/S) (FT/S/D)
BUOY 41004       1850   72 73   40/  8/ 10 1014.2R   2/ 9   2/ 9
BUOY 41008       NOT AVBL
FOLLY BEACH CMAN 1900   78     100/  6/  8 1014.8R
CAPERS NEARSHORE 1908   74 71  110/  8/ 12 1013.9F
FRIPP NEARSHORE  1908   76 73  160/  6/  6 1013.7S


STATION/POSITION TIME  TEMP    WIND        PRES    WAVE   SWELL
                       AIR SEA DIR/SP/G            HT/PER HT/PER/DIR
                 (UTC) (F)     (DEG/KT/KT) (MB)    (FT/S) (FT/S/D)
5E ST. MARYS GA  1821      75                N/A     1/10
FRYING PAN BUOY  1900   69 70   40/ 14/ 16 1014.4R
BUOY 41025       1850   65 75  360/ 14/ 16 1013.1F   3/ 4   2/ 60/ 8
CAPE LOOKOUT NC  1900   70     310/  8/ 11 1013.9F
BUOY 41002       1850   72 71  210/ 16/ 17 1013.4F   3/ 5   2/ 50/11
BUOY 41010       1820   77 77  210/  8/ 10 1015.3F
ST AUGUSTINE FL  1900   74 72   80/  6/  7 1015.2F


$$



USA.gov is the U.S. government's official web portal to all federal, state and local government web resources and services.